Home > Weather > Dawson City > Past weeks

Flag for Canada Past Weather in Dawson City, Yukon, Canada — Yesterday and Last 2 Weeks

Now
72 °F

Partly sunny.


Feels Like: 77 °F
Forecast: 54 / 76 °F
Wind: 5 mph from East

Location: Dawson

Current Time: Jul 27, 2016 at 4:04:05 PM

Latest Report: Jul 27, 2016 at 3:00 PM


Visibility: 20 mi

Pressure: 29.92 "Hg

Humidity: 50%

Dew Point: 52 °F

Location of Dawson CityLocation

Past Weather in Dawson City — Graph

°F

Dawson City Temperature Yesterday

Maximum temperature yesterday: 72 °F (at 6:45 PM)
Minimum temperature yesterday: 50 °F (at 6:00 AM)
Average temperature yesterday: 63 °F

High & Low Weather Summary for the Past Weeks

 TemperatureHumidityPressure
High82 °F (Jul 14, 4:00 PM)100% (Jul 15, 7:00 AM)30.28 "Hg (Jul 15, 7:00 AM)
Low45 °F (Jul 21, 6:00 AM)39% (Jul 13, 7:00 PM)29.54 "Hg (Jul 23, 6:00 PM)
Average61 °F73%29.95 "Hg
* Reported Jul 12 3:00 PM — Jul 27 3:00 PM, Dawson City, Weather by CustomWeather, © 2016

Note: Actual official high and low records may vary slightly from our data, if they occured in-between our weather recording intervals... More about our weather records

Advertising

Dawson City Weather History for the Previous 24 Hours

Scroll right to see more
 ConditionsComfort  
Time TempWeatherWind HumidityBarometerVisibility
3:00 PM
Wed, Jul 27
72 °FPartly sunny.5 mph50%29.92 "Hg20 mi
2:00 PM72 °FScattered showers. Broken clouds.8 mph50%29.94 "Hg20 mi
1:00 PM66 °FScattered showers. Broken clouds.5 mph56%29.96 "Hg20 mi
12:00 PM66 °FBroken clouds.8 mph60%29.97 "Hg20 mi
11:00 AM64 °FBroken clouds.6 mph68%29.97 "Hg20 mi
10:00 AM59 °FScattered showers. Cloudy.3 mph82%29.98 "Hg20 mi
9:00 AM57 °FScattered showers. Cloudy.6 mph94%29.98 "Hg20 mi
8:00 AM55 °FPartly sunny.No wind94%29.98 "Hg20 mi
7:00 AM54 °FPartly sunny.2 mph100%29.98 "Hg20 mi
6:00 AM54 °FScattered showers. Fog.2 mph100%29.96 "Hg20 mi
8:00 PM
Tue, Jul 26
59 °FThunderstorms. Overcast.No wind94%29.91 "Hg20 mi
7:00 PM68 °FThunderstorms. Overcast.10 mph60%29.89 "Hg20 mi
6:45 PM72 °FThunderstorms. Mostly cloudy.5 mph53%29.88 "Hg20 mi
6:00 PM70 °FScattered showers. Broken clouds.2 mph53%29.88 "Hg20 mi
5:00 PM70 °FScattered showers. Cloudy.No wind57%29.89 "Hg20 mi
4:00 PM68 °FSprinkles. Mostly cloudy.6 mph60%29.90 "Hg20 mi
Weather by CustomWeather, © 2016

See weather overviewHow to use our weather pages